period_start,C,m1,H,J0,J1,J2,J3,J4,J5,JA,JB,JC,JD,JJ,JK,JN,#
2014-01-29 00:00:43,0.24,4.70,0.00,17.09,22.94,26.42,6.13,30.96,1025.90,2054.01,2092.27,2234.19,2438.65,349.56,332.90,13.62,0000 0000 0000 0000 000000
2014-01-29 00:01:43,0.29,4.70,0.00,17.09,22.95,26.42,6.21,30.96,1025.90,2054.01,2092.10,2234.07,2438.27,349.33,332.84,13.63,0000 0000 0000 0000 000000
2014-01-29 00:02:43,0.18,4.70,0.00,17.08,22.94,26.44,6.35,31.00,1025.92,2054.01,2092.03,2234.03,2438.10,350.26,333.59,13.63,0000 0000 0000 0000 000000
2014-01-29 00:03:44,0.07,4.70,0.00,17.09,22.94,26.45,6.19,30.88,1025.95,2054.01,2091.92,2233.99,2438.03,350.13,333.72,13.64,0000 0000 0000 0000 000000
2014-01-29 00:04:44,0.07,4.70,0.00,17.09,22.95,26.45,6.16,30.71,1025.94,2054.00,2091.47,2233.84,2437.99,349.57,333.18,13.64,0000 0000 0000 0000 000000
2014-01-29 00:05:44,0.19,4.70,0.00,17.10,22.95,26.44,6.20,30.63,1025.93,2054.01,2091.18,2233.52,2437.96,350.14,333.54,13.65,0000 0000 0000 0000 000000
2014-01-29 00:06:44,0.23,4.70,0.00,17.10,22.96,26.39,6.24,30.88,1025.94,2054.01,2091.06,2233.23,2437.60,350.03,333.61,13.66,0000 0000 0000 0000 000000
2014-01-29 00:07:45,0.21,4.70,0.00,17.12,22.96,26.39,6.30,31.17,1025.95,2054.00,2090.97,2233.09,2437.23,350.77,334.30,13.66,0000 0000 0000 0000 000000
2014-01-29 00:08:45,0.14,4.70,0.00,17.12,22.97,26.40,6.12,30.88,1025.92,2054.00,2090.79,2233.03,2437.09,348.76,332.38,13.67,0000 0000 0000 0000 000000
2014-01-29 00:09:45,0.13,4.70,0.00,17.11,22.97,26.41,6.38,31.04,1025.92,2054.00,2090.35,2232.98,2437.03,350.34,333.88,13.67,0000 0000 0000 0000 000000
2014-01-29 00:10:45,0.13,4.70,0.00,17.12,22.97,26.39,6.18,30.83,1025.92,2054.00,2090.13,2232.86,2437.01,350.49,334.17,13.68,0000 0000 0000 0000 000000
2014-01-29 00:11:46,0.14,4.71,0.00,17.11,22.97,26.40,6.23,31.17,1025.93,2054.01,2090.05,2232.46,2436.85,349.98,333.54,13.69,0000 0000 0000 0000 000000
2014-01-29 00:12:46,0.22,4.71,0.00,17.12,22.97,26.36,6.39,31.21,1025.92,2054.01,2089.94,2232.18,2436.41,349.66,333.23,13.69,0000 0000 0000 0000 000000
2014-01-29 00:13:46,0.21,4.71,0.00,17.12,22.97,26.38,6.16,31.13,1025.91,2054.00,2089.55,2232.07,2436.16,349.35,332.94,13.70,0000 0000 0000 0000 000000
2014-01-29 00:14:46,0.20,4.71,0.00,17.11,22.97,26.43,6.39,31.17,1025.91,2054.00,2089.20,2232.02,2436.05,350.09,333.65,13.70,0000 0000 0000 0000 000000
2014-01-29 00:15:47,0.14,4.71,0.00,17.12,22.97,26.46,6.20,30.79,1025.92,2054.00,2089.07,2231.97,2436.01,350.12,333.67,13.71,0000 0000 0000 0000 000000
2014-01-29 00:16:47,0.05,4.71,0.00,17.12,22.97,26.44,6.22,30.96,1025.91,2054.00,2089.01,2231.93,2435.97,349.31,332.89,13.71,0000 0000 0000 0000 000000
2014-01-29 00:17:47,0.05,4.71,0.00,17.13,22.97,26.43,6.33,30.92,1025.98,2054.00,2088.79,2231.54,2435.59,350.33,333.88,13.72,0000 0000 0000 0000 000000
2014-01-29 00:18:47,0.34,4.71,0.00,17.13,22.98,26.44,6.30,30.67,1026.11,2054.00,2088.39,2231.20,2435.24,350.60,333.96,13.73,0000 0000 0000 0000 000000
2014-01-29 00:19:47,0.29,4.71,0.00,17.13,22.99,26.46,6.22,30.63,1026.06,2054.00,2088.14,2231.09,2435.10,349.71,332.82,13.73,0000 0000 0000 0000 000000
2014-01-29 00:20:48,0.14,4.72,0.00,17.13,22.99,26.44,6.19,30.83,1025.95,2054.00,2088.05,2231.02,2435.03,349.12,332.72,13.74,0000 0000 0000 0000 000000
2014-01-29 00:21:48,0.06,4.72,0.00,17.14,22.99,26.42,6.19,30.75,1025.95,2054.00,2087.96,2230.99,2434.98,350.00,333.65,13.74,0000 0000 0000 0000 000000
2014-01-29 00:22:48,0.05,4.72,0.00,17.14,22.99,26.44,6.08,30.83,1025.91,2054.00,2087.57,2230.77,2434.80,349.81,333.34,13.75,0000 0000 0000 0000 000000
2014-01-29 00:23:48,0.30,4.72,0.00,17.14,22.99,26.45,6.22,30.88,1025.90,2054.00,2087.22,2230.35,2434.44,349.52,332.82,13.76,0000 0000 0000 0000 000000
2014-01-29 00:24:49,0.31,4.72,0.00,17.14,22.99,26.48,6.03,30.50,1025.90,2054.00,2087.08,2230.13,2434.18,349.72,333.25,13.76,0000 0000 0000 0000 000000
2014-01-29 00:25:49,0.17,4.72,0.00,17.14,22.99,26.46,6.42,30.83,1025.91,2054.00,2086.99,2230.05,2434.06,350.93,334.24,13.77,0000 0000 0000 0000 000000
2014-01-29 00:26:49,0.07,4.72,0.00,17.13,22.99,26.46,6.24,31.25,1025.90,2054.00,2086.85,2230.01,2433.99,350.10,333.77,13.77,0000 0000 0000 0000 000000
2014-01-29 00:27:49,0.08,4.72,0.00,17.14,22.99,26.42,6.33,31.42,1025.90,2054.00,2086.40,2229.93,2433.93,350.18,333.16,13.78,0000 0000 0000 0000 000000
2014-01-29 00:28:50,0.20,4.72,0.00,17.14,22.99,26.43,6.30,31.71,1025.90,2054.00,2086.15,2229.60,2433.57,350.47,334.15,13.78,0000 0000 0000 0000 000000
2014-01-29 00:29:50,0.29,4.72,0.00,17.14,22.99,26.47,6.26,31.63,1025.91,2054.00,2086.05,2229.30,2433.23,349.75,333.65,13.79,0000 0000 0000 0000 000000
2014-01-29 00:30:50,0.19,4.73,0.00,17.15,23.00,26.49,6.35,31.67,1025.90,2054.00,2085.96,2229.12,2433.08,350.34,333.84,13.80,0000 0000 0000 0000 000000
2014-01-29 00:31:50,0.11,4.73,0.00,17.15,23.00,26.46,6.22,31.54,1025.90,2054.00,2085.63,2229.04,2433.03,349.52,333.05,13.80,0000 0000 0000 0000 000000
2014-01-29 00:32:51,0.16,4.73,0.00,17.15,23.00,26.44,6.30,31.46,1025.92,2054.00,2085.23,2229.01,2433.00,350.38,333.96,13.81,0000 0000 0000 0000 000000
2014-01-29 00:33:51,0.12,4.73,0.00,17.14,23.00,26.42,6.16,31.25,1025.95,2054.00,2085.07,2228.95,2432.87,350.17,333.70,13.81,0000 0000 0000 0000 000000
2014-01-29 00:34:51,0.11,4.73,0.00,17.13,23.01,26.40,6.30,31.38,1025.94,2054.00,2085.01,2228.56,2432.47,350.05,333.59,13.82,0000 0000 0000 0000 000000
2014-01-29 00:35:51,0.25,4.73,0.00,17.13,23.02,26.43,6.13,31.29,1025.92,2054.00,2084.79,2228.22,2432.20,349.00,333.08,13.83,0000 0000 0000 0000 000000
2014-01-29 00:36:52,0.26,4.73,0.00,17.14,23.02,26.45,6.27,31.13,1025.92,2054.00,2084.33,2228.08,2432.07,350.55,334.03,13.83,0000 0000 0000 0000 000000
2014-01-29 00:37:52,0.20,4.73,0.00,17.14,23.02,26.45,6.18,31.33,1025.91,2054.00,2084.13,2228.02,2432.02,349.70,333.23,13.84,0000 0000 0000 0000 000000
2014-01-29 00:38:52,0.08,4.73,0.00,17.15,23.02,26.45,6.17,31.42,1025.91,2054.00,2084.04,2227.98,2432.01,349.94,333.36,13.84,0000 0000 0000 0000 000000
2014-01-29 00:39:52,0.04,4.73,0.00,17.17,23.02,26.46,6.26,31.17,1025.90,2054.00,2083.95,2227.90,2431.85,350.00,333.48,13.85,0000 0000 0000 0000 000000
2014-01-29 00:40:53,0.12,4.73,0.00,17.17,23.02,26.46,6.33,31.04,1025.90,2054.00,2083.58,2227.55,2431.43,350.88,334.42,13.86,0000 0000 0000 0000 000000
2014-01-29 00:41:53,0.33,4.74,0.00,17.16,23.02,26.48,6.12,31.08,1025.94,2054.00,2083.24,2227.22,2431.18,349.65,332.78,13.86,0000 0000 0000 0000 000000
2014-01-29 00:42:53,0.26,4.74,0.00,17.15,23.02,26.50,6.28,31.33,1026.00,2054.00,2083.08,2227.08,2431.07,349.93,333.47,13.87,0000 0000 0000 0000 000000
2014-01-29 00:43:53,0.12,4.74,0.00,17.15,23.02,26.52,6.27,31.29,1026.12,2053.99,2083.01,2227.02,2431.01,350.50,334.05,13.87,0000 0000 0000 0000 000000
2014-01-29 00:44:53,0.05,4.74,0.00,17.16,23.02,26.51,6.17,31.29,1026.21,2053.98,2082.71,2226.96,2430.86,350.24,334.10,13.88,0000 0000 0000 0000 000000
2014-01-29 00:45:54,0.17,4.74,0.00,17.17,23.03,26.51,6.34,31.25,1026.22,2053.99,2082.28,2226.71,2430.47,349.51,333.11,13.88,0000 0000 0000 0000 000000
2014-01-29 00:46:54,0.30,4.74,0.00,17.17,23.04,26.50,6.14,31.17,1026.27,2053.98,2082.10,2226.32,2430.19,349.67,333.29,13.89,0000 0000 0000 0000 000000
2014-01-29 00:47:54,0.24,4.74,0.00,17.16,23.04,26.50,6.21,31.08,1026.14,2053.98,2082.01,2226.13,2430.07,350.54,334.23,13.90,0000 0000 0000 0000 000000
2014-01-29 00:48:54,0.12,4.74,0.00,17.16,23.04,26.45,6.30,31.21,1026.15,2053.98,2081.93,2226.05,2430.01,349.80,333.18,13.90,0000 0000 0000 0000 000000
2014-01-29 00:49:54,0.07,4.74,0.00,17.17,23.04,26.50,6.11,31.00,1026.16,2053.96,2081.50,2226.01,2429.95,349.18,332.79,13.91,0000 0000 0000 0000 000000
2014-01-29 00:50:55,0.14,4.75,0.00,17.17,23.04,26.54,6.28,31.04,1026.16,2053.97,2081.18,2225.95,2429.69,350.38,333.94,13.91,0000 0000 0000 0000 000000
2014-01-29 00:51:55,0.19,4.75,0.00,17.18,23.04,26.52,6.30,31.17,1026.18,2053.98,2081.06,2225.71,2429.31,350.27,333.83,13.92,0000 0000 0000 0000 000000
2014-01-29 00:52:55,0.22,4.75,0.00,17.18,23.04,26.52,6.08,31.08,1026.18,2053.99,2080.99,2225.33,2429.13,349.22,332.81,13.93,0000 0000 0000 0000 000000
2014-01-29 00:53:55,0.19,4.75,0.00,17.17,23.04,26.53,6.35,31.13,1026.22,2053.99,2080.81,2225.13,2429.05,350.74,334.30,13.93,0000 0000 0000 0000 000000
2014-01-29 00:54:55,0.16,4.75,0.00,17.17,23.05,26.53,6.13,31.13,1026.16,2053.99,2080.34,2225.05,2429.01,350.12,333.68,13.94,0000 0000 0000 0000 000000
2014-01-29 00:55:55,0.17,4.75,0.00,17.19,23.05,26.56,6.04,31.21,1026.13,2053.97,2080.12,2225.00,2428.92,350.37,333.68,13.94,0000 0000 0000 0000 000000
2014-01-29 00:56:56,0.08,4.75,0.00,17.18,23.05,26.54,6.25,31.13,1026.21,2053.98,2080.04,2224.95,2428.63,349.82,333.41,13.95,0000 0000 0000 0000 000000
2014-01-29 00:57:56,0.12,4.75,0.00,17.19,23.06,26.55,6.37,31.17,1026.20,2053.98,2079.96,2224.70,2428.26,350.28,333.83,13.95,0000 0000 0000 0000 000000
2014-01-29 00:58:56,0.20,4.75,0.00,17.19,23.06,26.52,6.38,31.21,1026.23,2053.99,2079.50,2224.32,2428.09,350.90,334.43,13.96,0000 0000 0000 0000 000000
2014-01-29 00:59:57,0.33,4.76,0.00,17.19,23.07,26.55,6.13,31.17,1026.28,2053.99,2079.20,2224.11,2428.03,349.64,333.25,13.97,0000 0000 0000 0000 000000
2014-01-29 01:00:57,0.14,4.76,0.00,17.19,23.07,26.54,6.21,31.21,1026.28,2053.96,2079.07,2224.04,2427.96,349.91,333.70,13.97,0000 0000 0000 0000 000000
2014-01-29 01:01:57,0.05,4.76,0.00,17.19,23.07,26.60,6.41,31.29,1026.25,2053.96,2079.02,2224.00,2427.75,351.09,334.61,13.98,0000 0000 0000 0000 000000
2014-01-29 01:02:57,0.08,4.76,0.00,17.19,23.07,26.61,6.14,31.25,1026.29,2053.98,2078.80,2223.97,2427.38,349.68,333.52,13.98,0000 0000 0000 0000 000000
2014-01-29 01:03:58,0.19,4.76,0.00,17.20,23.07,26.60,6.39,31.25,1026.31,2053.97,2078.36,2223.69,2427.15,350.46,334.07,13.99,0000 0000 0000 0000 000000
2014-01-29 01:04:58,0.32,4.76,0.00,17.20,23.07,26.58,6.13,31.13,1026.33,2053.96,2078.13,2223.29,2427.05,349.41,332.81,14.00,0000 0000 0000 0000 000000
2014-01-29 01:05:58,0.21,4.76,0.00,17.19,23.07,26.56,6.38,31.17,1026.34,2053.98,2078.04,2223.11,2427.01,350.71,334.35,14.00,0000 0000 0000 0000 000000
2014-01-29 01:06:58,0.10,4.76,0.00,17.19,23.07,26.55,6.37,31.25,1026.32,2053.97,2077.97,2223.04,2426.84,350.45,333.97,14.01,0000 0000 0000 0000 000000
2014-01-29 01:07:58,0.08,4.76,0.00,17.19,23.07,26.55,6.01,31.29,1026.17,2053.95,2077.58,2223.01,2426.46,349.19,332.56,14.01,0000 0000 0000 0000 000000
2014-01-29 01:08:59,0.21,4.76,0.00,17.22,23.08,26.56,6.21,31.46,1026.14,2053.94,2077.22,2222.84,2426.20,349.72,333.01,14.02,0000 0000 0000 0000 000000
2014-01-29 01:09:59,0.22,4.76,0.00,17.22,23.08,26.57,6.34,31.04,1026.12,2053.91,2077.08,2222.41,2426.07,350.03,333.54,14.02,0000 0000 0000 0000 000000
2014-01-29 01:10:59,0.18,4.77,0.00,17.22,23.09,26.59,6.27,31.13,1026.10,2053.87,2077.02,2222.17,2426.01,349.98,333.48,14.03,0000 0000 0000 0000 000000
2014-01-29 01:11:59,0.07,4.77,0.00,17.22,23.09,26.56,6.03,31.08,1026.10,2053.88,2076.85,2222.06,2425.94,349.10,332.78,14.04,0000 0000 0000 0000 000000
2014-01-29 01:12:59,0.14,4.77,0.00,17.22,23.09,26.56,6.20,31.13,1026.19,2053.82,2076.42,2222.02,2425.56,349.44,333.31,14.04,0000 0000 0000 0000 000000
2014-01-29 01:14:00,0.16,4.77,0.00,17.21,23.09,26.53,6.21,31.17,1026.28,2053.68,2076.15,2221.94,2425.21,349.44,332.71,14.05,0000 0000 0000 0000 000000
2014-01-29 01:15:00,0.00,4.77,0.00,17.22,23.09,26.52,6.08,31.13,1026.26,2053.75,2076.05,2221.69,2425.07,349.51,333.09,14.05,0000 0000 0000 0000 000000
2014-01-29 01:16:00,0.29,4.77,0.00,17.22,23.09,26.56,6.22,31.17,1026.22,2053.69,2075.97,2221.29,2425.03,349.47,332.86,14.06,0000 0000 0000 0000 000000
2014-01-29 01:17:00,0.09,4.77,0.00,17.22,23.09,26.58,6.25,31.21,1026.15,2053.60,2075.59,2221.10,2424.96,350.81,334.08,14.07,0000 0000 0000 0000 000000
2014-01-29 01:18:01,0.13,4.77,0.00,17.22,23.10,26.60,6.17,31.13,1026.17,2053.63,2075.22,2221.04,2424.65,349.60,333.14,14.07,0000 0000 0000 0000 000000
2014-01-29 01:19:01,0.21,4.77,0.00,17.24,23.10,26.60,6.42,31.08,1026.28,2053.75,2075.08,2221.01,2424.26,350.28,333.79,14.08,0000 0000 0000 0000 000000
2014-01-29 01:20:01,0.24,4.77,0.00,17.24,23.10,26.60,6.17,31.29,1026.33,2053.75,2075.01,2220.95,2424.09,349.32,332.90,14.08,0000 0000 0000 0000 000000
2014-01-29 01:21:01,0.07,4.77,0.00,17.25,23.10,26.58,6.19,31.25,1026.32,2053.60,2074.81,2220.59,2424.03,349.92,333.19,14.09,0000 0000 0000 0000 000000
2014-01-29 01:22:01,0.10,4.78,0.00,17.26,23.11,26.53,6.31,31.13,1026.32,2053.59,2074.39,2220.27,2423.98,350.95,334.43,14.10,0000 0000 0000 0000 000000
2014-01-29 01:23:02,0.26,4.78,0.00,17.26,23.12,26.50,6.30,31.25,1026.34,2053.59,2074.14,2220.09,2423.93,349.99,333.52,14.10,0000 0000 0000 0000 000000
2014-01-29 01:24:02,0.14,4.78,0.00,17.27,23.12,26.53,6.18,31.21,1026.35,2053.64,2074.04,2220.03,2423.70,350.13,333.66,14.11,0000 0000 0000 0000 000000
2014-01-29 01:25:02,0.13,4.78,0.00,17.27,23.12,26.59,6.24,31.13,1026.35,2053.72,2073.98,2220.01,2423.31,350.64,334.34,14.11,0000 0000 0000 0000 000000
2014-01-29 01:26:03,0.20,4.78,0.00,17.28,23.12,26.55,6.21,31.33,1026.31,2053.56,2073.65,2219.95,2423.11,350.31,334.01,14.12,0000 0000 0000 0000 000000
2014-01-29 01:27:03,-0.01,4.78,0.00,17.29,23.12,26.58,6.22,31.25,1026.13,2053.43,2073.26,2219.60,2423.04,349.75,333.19,14.12,0000 0000 0000 0000 000000
2014-01-29 01:28:03,0.18,4.78,0.00,17.29,23.12,26.59,6.21,31.33,1026.03,2053.39,2073.10,2219.25,2423.00,349.80,333.20,14.13,0000 0000 0000 0000 000000
2014-01-29 01:29:03,0.13,4.78,0.00,17.29,23.12,26.55,6.22,31.29,1025.96,2053.34,2073.03,2219.09,2422.79,349.70,333.39,14.14,0000 0000 0000 0000 000000
2014-01-29 01:30:03,0.08,4.78,0.00,17.29,23.12,26.54,6.20,31.17,1025.92,2053.27,2072.93,2219.03,2422.32,349.62,333.18,14.14,0000 0000 0000 0000 000000
2014-01-29 01:31:04,0.09,4.78,0.00,17.28,23.12,26.57,6.30,31.13,1025.91,2053.23,2072.48,2218.99,2422.11,350.47,333.75,14.15,0000 0000 0000 0000 000000
2014-01-29 01:32:04,0.13,4.78,0.00,17.27,23.13,26.60,6.24,31.13,1026.00,2053.26,2072.17,2218.87,2422.04,349.67,332.93,14.15,0000 0000 0000 0000 000000
2014-01-29 01:33:04,0.23,4.78,0.00,17.28,23.13,26.60,6.34,31.25,1026.11,2053.20,2072.06,2218.50,2422.00,349.96,333.57,14.16,0000 0000 0000 0000 000000
2014-01-29 01:34:04,0.09,4.79,0.00,17.29,23.14,26.53,6.20,31.17,1026.05,2053.18,2072.01,2218.20,2421.97,349.40,332.73,14.17,0000 0000 0000 0000 000000
2014-01-29 01:35:04,0.09,4.79,0.00,17.29,23.14,26.55,6.43,31.29,1025.98,2053.28,2071.80,2218.07,2421.68,350.70,334.04,14.17,0000 0000 0000 0000 000000
2014-01-29 01:36:05,0.27,4.79,0.00,17.29,23.14,26.58,6.23,31.29,1025.92,2053.24,2071.36,2218.02,2421.26,350.58,333.90,14.18,0000 0000 0000 0000 000000
2014-01-29 01:37:05,0.21,4.79,0.00,17.29,23.14,26.59,6.21,31.13,1025.92,2053.24,2071.13,2218.00,2421.09,349.65,333.01,14.18,0000 0000 0000 0000 000000
2014-01-29 01:38:05,0.13,4.79,0.00,17.29,23.14,26.61,6.23,31.25,1025.94,2053.18,2071.05,2217.91,2421.03,350.27,333.62,14.19,0000 0000 0000 0000 000000
2014-01-29 01:39:06,0.00,4.79,0.00,17.29,23.14,26.61,6.32,31.17,1025.97,2053.17,2071.00,2217.57,2420.99,350.39,333.74,14.19,0000 0000 0000 0000 000000
2014-01-29 01:40:06,0.15,4.79,0.00,17.31,23.14,26.59,6.25,31.17,1026.04,2053.24,2070.76,2217.24,2420.94,350.34,333.69,14.20,0000 0000 0000 0000 000000
2014-01-29 01:41:06,0.28,4.79,0.00,17.32,23.15,26.57,6.22,31.13,1026.21,2053.21,2070.32,2217.10,2420.57,349.57,333.01,14.21,0000 0000 0000 0000 000000
2014-01-29 01:42:06,0.25,4.79,0.00,17.31,23.15,26.61,6.08,31.08,1026.09,2053.20,2070.11,2217.03,2420.22,349.67,333.09,14.21,0000 0000 0000 0000 000000
2014-01-29 01:43:07,0.14,4.79,0.00,17.31,23.15,26.59,6.18,31.21,1025.97,2053.18,2070.02,2217.01,2420.08,350.26,333.73,14.22,0000 0000 0000 0000 000000
2014-01-29 01:44:07,0.05,4.79,0.00,17.33,23.15,26.58,6.32,31.25,1026.00,2053.08,2069.91,2216.91,2420.02,349.82,333.17,14.22,0000 0000 0000 0000 000000
2014-01-29 01:45:07,0.00,4.79,0.00,17.32,23.16,26.55,6.26,31.42,1026.04,2053.08,2069.53,2216.51,2419.96,350.11,333.67,14.23,0000 0000 0000 0000 000000
2014-01-29 01:46:07,0.26,4.80,0.00,17.33,23.17,26.57,6.13,31.50,1026.18,2053.06,2069.21,2216.20,2419.61,349.19,332.71,14.24,0000 0000 0000 0000 000000
2014-01-29 01:47:07,0.28,4.80,0.00,17.34,23.17,26.60,6.31,31.38,1026.18,2053.07,2069.07,2216.07,2419.24,350.21,333.71,14.24,0000 0000 0000 0000 000000
2014-01-29 01:48:08,0.16,4.80,0.00,17.34,23.17,26.61,6.12,31.29,1026.06,2053.07,2069.01,2216.01,2419.08,350.12,333.46,14.25,0000 0000 0000 0000 000000
2014-01-29 01:49:08,0.07,4.80,0.00,17.34,23.17,26.62,6.35,31.29,1026.03,2053.05,2068.85,2215.99,2419.03,350.99,334.05,14.25,0000 0000 0000 0000 000000
2014-01-29 01:50:08,0.05,4.80,0.00,17.34,23.17,26.60,6.30,31.25,1026.02,2053.07,2068.41,2215.90,2418.99,349.99,333.61,14.26,0000 0000 0000 0000 000000
2014-01-29 01:51:08,0.23,4.80,0.00,17.34,23.17,26.61,6.08,31.38,1025.96,2053.06,2068.16,2215.59,2418.92,349.76,332.93,14.26,0000 0000 0000 0000 000000
2014-01-29 01:52:09,0.19,4.80,0.00,17.34,23.17,26.62,6.27,31.33,1025.93,2053.06,2068.05,2215.24,2418.69,349.79,333.17,14.27,0000 0000 0000 0000 000000
2014-01-29 01:53:09,0.19,4.80,0.00,17.34,23.17,26.64,6.32,31.29,1025.91,2053.06,2067.99,2215.09,2418.31,350.09,333.38,14.28,0000 0000 0000 0000 000000
2014-01-29 01:54:09,0.19,4.80,0.00,17.34,23.17,26.62,6.35,31.46,1025.90,2053.05,2067.70,2215.02,2418.12,350.63,333.88,14.28,0000 0000 0000 0000 000000
2014-01-29 01:55:09,0.14,4.81,0.00,17.34,23.18,26.59,6.24,31.21,1025.90,2053.05,2067.31,2214.97,2418.04,350.81,334.05,14.29,0000 0000 0000 0000 000000
2014-01-29 01:56:10,0.16,4.81,0.00,17.35,23.19,26.58,6.19,31.21,1025.90,2053.03,2067.11,2214.85,2418.00,349.83,333.06,14.29,0000 0000 0000 0000 000000
2014-01-29 01:57:10,0.09,4.81,0.00,17.36,23.19,26.57,6.31,31.04,1025.90,2053.02,2067.04,2214.59,2417.85,350.13,333.25,14.30,0000 0000 0000 0000 000000
2014-01-29 01:58:10,0.15,4.81,0.00,17.35,23.19,26.58,6.09,31.13,1025.90,2053.01,2067.00,2214.26,2417.43,349.41,332.59,14.31,0000 0000 0000 0000 000000
2014-01-29 01:59:11,0.23,4.81,0.00,17.35,23.19,26.57,6.33,31.25,1025.90,2053.02,2066.66,2214.09,2417.15,350.12,333.49,14.31,0000 0000 0000 0000 000000
2014-01-29 02:00:11,0.23,4.81,0.00,17.35,23.19,26.60,6.09,31.00,1025.90,2053.03,2066.28,2214.03,2417.05,349.68,332.97,14.32,0000 0000 0000 0000 000000
2014-01-29 02:01:11,0.14,4.81,0.00,17.35,23.19,26.64,6.33,30.96,1025.90,2053.02,2066.13,2214.01,2417.02,351.21,334.43,14.32,0000 0000 0000 0000 000000
2014-01-29 02:02:11,0.06,4.81,0.00,17.36,23.19,26.69,6.30,31.33,1025.90,2053.00,2066.04,2213.84,2416.90,350.45,333.70,14.33,0000 0000 0000 0000 000000
2014-01-29 02:03:11,0.10,4.81,0.00,17.37,23.19,26.67,6.30,31.33,1025.90,2053.03,2065.94,2213.54,2416.63,350.66,334.23,14.34,0000 0000 0000 0000 000000
2014-01-29 02:04:12,0.21,4.81,0.00,17.37,23.20,26.65,6.24,31.33,1025.90,2053.02,2065.57,2213.27,2416.25,350.80,333.94,14.34,0000 0000 0000 0000 000000
2014-01-29 02:05:12,0.31,4.82,0.00,17.37,23.20,26.65,6.38,31.33,1025.90,2053.00,2065.22,2213.11,2416.09,350.60,333.83,14.35,0000 0000 0000 0000 000000
2014-01-29 02:06:12,0.19,4.82,0.00,17.37,23.21,26.66,6.13,31.38,1025.90,2053.00,2065.08,2213.04,2416.03,349.42,333.09,14.35,0000 0000 0000 0000 000000
2014-01-29 02:07:12,0.07,4.82,0.00,17.38,23.22,26.68,6.35,31.25,1025.90,2053.01,2065.02,2213.00,2416.01,351.43,334.60,14.36,0000 0000 0000 0000 000000
2014-01-29 02:08:13,0.04,4.82,0.00,17.38,23.22,26.67,6.41,31.33,1025.90,2053.01,2064.96,2212.91,2415.96,350.48,334.00,14.36,0000 0000 0000 0000 000000
2014-01-29 02:09:13,0.08,4.82,0.00,17.39,23.22,26.68,6.28,31.29,1025.90,2053.00,2064.56,2212.55,2415.61,349.77,333.02,14.37,0000 0000 0000 0000 000000
2014-01-29 02:10:13,0.33,4.82,0.00,17.39,23.22,26.65,6.28,31.50,1025.90,2053.00,2064.21,2212.22,2415.27,349.47,332.75,14.38,0000 0000 0000 0000 000000
2014-01-29 02:11:14,0.30,4.82,0.00,17.39,23.22,26.63,6.26,31.58,1025.90,2053.00,2064.07,2212.08,2415.10,349.93,333.03,14.38,0000 0000 0000 0000 000000
2014-01-29 02:12:14,0.13,4.82,0.00,17.38,23.22,26.63,6.20,31.33,1025.90,2053.00,2064.00,2212.03,2415.03,349.46,332.73,14.39,0000 0000 0000 0000 000000
2014-01-29 02:13:14,0.05,4.82,0.00,17.39,23.22,26.65,6.24,31.38,1025.90,2053.00,2063.86,2212.01,2414.96,349.33,332.80,14.39,0000 0000 0000 0000 000000
2014-01-29 02:14:14,0.07,4.82,0.00,17.39,23.22,26.66,6.23,31.29,1025.91,2053.00,2063.49,2211.95,2414.86,349.84,333.19,14.40,0000 0000 0000 0000 000000
2014-01-29 02:15:14,0.17,4.82,0.00,17.39,23.22,26.63,6.18,31.33,1025.90,2053.00,2063.18,2211.55,2414.47,350.39,333.32,14.41,0000 0000 0000 0000 000000
2014-01-29 02:16:15,0.33,4.83,0.00,17.39,23.23,26.62,6.33,31.50,1025.90,2053.00,2063.06,2211.20,2414.18,350.80,333.81,14.41,0000 0000 0000 0000 000000
2014-01-29 02:17:15,0.23,4.83,0.00,17.39,23.23,26.68,6.30,31.33,1025.90,2053.00,2063.00,2211.07,2414.06,350.06,333.29,14.42,0000 0000 0000 0000 000000
2014-01-29 02:18:15,0.09,4.83,0.00,17.39,23.24,26.71,6.32,31.33,1025.91,2053.00,2062.83,2211.01,2414.01,350.98,334.17,14.42,0000 0000 0000 0000 000000
2014-01-29 02:19:15,0.07,4.83,0.00,17.40,23.24,26.67,6.26,31.25,1025.91,2053.00,2062.40,2211.00,2413.93,350.05,333.28,14.43,0000 0000 0000 0000 000000
2014-01-29 02:20:16,0.16,4.83,0.00,17.39,23.24,26.67,6.35,31.38,1025.91,2053.00,2062.14,2210.98,2413.64,349.80,333.36,14.43,0000 0000 0000 0000 000000
2014-01-29 02:21:16,0.16,4.83,0.00,17.41,23.24,26.68,6.39,31.38,1025.90,2053.00,2062.05,2210.72,2413.28,350.52,333.71,14.44,0000 0000 0000 0000 000000
2014-01-29 02:22:16,0.20,4.83,0.00,17.42,23.24,26.67,6.18,31.38,1025.91,2053.00,2062.00,2210.31,2413.10,349.74,332.96,14.45,0000 0000 0000 0000 000000
2014-01-29 02:23:16,0.22,4.83,0.00,17.41,23.24,26.66,6.21,31.33,1025.92,2053.00,2061.69,2210.12,2413.03,350.56,333.74,14.45,0000 0000 0000 0000 000000
2014-01-29 02:24:16,0.17,4.83,0.00,17.40,23.25,26.66,6.27,31.38,1025.92,2053.00,2061.29,2210.04,2413.00,350.02,333.24,14.46,0000 0000 0000 0000 000000
2014-01-29 02:25:17,0.16,4.83,0.00,17.40,23.25,26.72,6.31,31.21,1025.92,2053.00,2061.11,2210.00,2412.89,350.22,333.45,14.46,0000 0000 0000 0000 000000
2014-01-29 02:26:17,0.10,4.84,0.00,17.40,23.25,26.73,6.10,31.25,1025.97,2053.00,2061.03,2209.93,2412.53,349.88,333.39,14.47,0000 0000 0000 0000 000000
2014-01-29 02:27:17,0.12,4.84,0.00,17.40,23.25,26.71,6.25,31.25,1025.93,2053.00,2060.96,2209.59,2412.19,349.64,332.89,14.48,0000 0000 0000 0000 000000
2014-01-29 02:28:17,0.24,4.84,0.00,17.41,23.26,26.69,6.19,31.29,1026.00,2053.00,2060.63,2209.25,2412.07,349.43,333.02,14.48,0000 0000 0000 0000 000000
2014-01-29 02:29:18,0.25,4.84,0.00,17.42,23.26,26.69,6.27,31.38,1026.12,2052.99,2060.23,2209.09,2412.01,349.99,333.09,14.49,0000 0000 0000 0000 000000
2014-01-29 02:30:18,0.16,4.84,0.00,17.44,23.27,26.69,6.15,31.25,1026.14,2052.99,2060.09,2209.03,2411.98,348.84,332.24,14.49,0000 0000 0000 0000 000000
2014-01-29 02:31:18,0.07,4.84,0.00,17.43,23.27,26.67,6.31,31.38,1026.10,2052.99,2060.03,2209.01,2411.77,350.75,334.35,14.50,0000 0000 0000 0000 000000
2014-01-29 02:32:18,0.08,4.84,0.00,17.44,23.27,26.71,6.13,31.38,1026.11,2052.99,2059.89,2208.91,2411.39,349.42,332.50,14.50,0000 0000 0000 0000 000000
2014-01-29 02:33:19,0.20,4.84,0.00,17.44,23.27,26.69,6.30,31.17,1025.99,2052.98,2059.46,2208.56,2411.14,350.46,333.67,14.51,0000 0000 0000 0000 000000
2014-01-29 02:34:19,0.30,4.84,0.00,17.44,23.27,26.65,6.27,31.42,1025.91,2052.99,2059.17,2208.27,2411.05,348.96,332.43,14.52,0000 0000 0000 0000 000000
2014-01-29 02:35:19,0.20,4.84,0.00,17.45,23.27,26.68,6.28,31.38,1025.90,2052.99,2059.06,2208.11,2411.01,350.36,333.52,14.52,0000 0000 0000 0000 000000
2014-01-29 02:36:20,0.09,4.85,0.00,17.45,23.27,26.68,6.28,31.42,1025.90,2052.98,2059.01,2208.04,2410.98,349.97,333.04,14.53,0000 0000 0000 0000 000000